RH
42 39 34 33 29 17 14 14 16 18 18 18 18 18 18 18 19 19 18 16 15 14 14 14 14 15 15 15 14 12 13 24 41 51 59 83 89 100 100 100 100 100 100
31 25 20 18 16 15 16 19 19 17 17 19 20 20 19 19 20 20 20 20 20 19 19 19 19 18 17 18 19 17 14 13 19 41 45 48 58 69 87 100 100 100 98
11 13 15 18 20 21 22 20 20 20 20 19 19 20 19 19 19 18 18 19 20 20 20 20 20 20 20 20 19 18 19 21 19 18 30 45 44 46 68 77 92 97 100
13 15 17 20 24 22 21 19 17 17 16 15 16 16 16 18 18 18 20 20 19 18 19 20 20 20 19 19 20 21 21 20 18 19 20 18 28 48 51 56 68 84 96
14 20 24 23 21 18 17 16 17 18 18 18 19 21 25 28 28 28 28 29 30 30 31 32 31 28 25 22 20 20 19 19 19 19 18 18 16 19 29 44 46 65 66
15 16 17 17 17 18 19 22 23 24 26 30 34 35 37 40 43 48 49 54 53 54 53 48 44 41 36 32 29 27 25 22 19 17 16 17 17 17 17 21 32 48 60
13 15 16 19 24 28 30 35 40 41 48 52 55 60 59 61 62 66 66 69 72 66 58 58 54 50 49 46 43 35 29 26 22 20 17 16 16 17 16 15 16 21 42
17 20 24 30 35 35 34 36 41 48 52 54 57 59 53 68 73 64 61 63 62 60 59 61 56 52 54 54 50 44 36 30 26 21 20 19 16 14 14 13 13 14 14
27 29 30 34 35 38 40 40 48 49 48 56 64 65 68 74 83 92 92 81 74 75 67 62 61 56 52 56 48 46 40 35 30 23 18 18 19 16 13 12 13 12 13
34 41 43 47 54 57 62 68 66 86 97 83 65 64 63 66 60 64 72 69 62 62 56 52 49 49 52 47 42 44 42 34 31 25 19 16 15 17 15 13 12 11 12
40 46 61 74 77 85 86 90 100 100 100 82 71 67 64 64 70 80 83 66 62 61 63 57 54 46 48 47 49 48 51 48 32 28 22 18 14 14 15 14 12 11 11
67 92 93 100 100 100 100 94 93 88 83 89 98 95 83 81 92 91 86 79 72 62 52 53 57 57 47 48 45 40 33 35 34 31 22 21 17 13 14 13 13 10 10
81 81 87 83 62 48 61 77 100 95 91 99 100 92 100 100 97 93 96 89 83 76 64 78 64 55 50 46 37 34 26 30 29 29 25 20 19 15 12 14 12 11 10
75 91 90 78 62 62 62 70 76 81 82 86 100 100 80 68 90 81 87 74 75 77 81 67 61 51 44 41 41 29 28 23 26 25 21 21 18 18 12 12 14 11 11
87 89 66 50 47 49 55 62 67 69 97 85 78 100 87 86 90 76 80 90 97 91 82 71 63 64 62 45 35 31 26 25 23 21 20 19 17 18 15 11 14 12 12
55 51 56 57 59 61 57 61 64 67 80 86 80 93 100 97 100 100 100 95 91 96 88 76 61 55 47 37 30 25 22 19 19 17 16 16 15 15 16 12 12 14 12
65 70 75 87 94 94 96 94 91 61 63 74 74 80 99 100 100 100 85 94 90 76 71 71 59 47 41 39 30 25 21 16 14 13 12 14 13 14 15 14 11 14 14
66 69 76 78 81 73 61 63 69 63 64 77 79 99 100 100 100 98 77 71 63 65 66 61 53 33 28 25 25 23 18 14 12 10 10 12 12 14 12 14 12 12 15
75 64 76 88 88 86 54 50 51 64 77 70 95 91 85 91 86 76 77 82 62 49 40 40 36 27 22 23 23 20 17 12 11 10 9 10 12 13 12 12 13 11 14
64 78 98 78 97 75 85 51 58 64 76 89 93 100 100 97 97 88 67 55 48 46 35 28 26 24 19 19 17 14 12 12 10 9 9 10 11 13 14 12 12 12 11
52 65 98 98 100 76 46 56 70 76 86 93 100 100 99 86 87 70 52 45 41 35 28 26 22 18 18 16 14 13 10 10 10 9 9 9 10 13 14 13 12 12 11
58 68 93 100 100 52 53 78 78 91 92 98 100 100 94 89 72 50 42 38 34 26 23 22 17 17 15 14 13 10 9 10 10 10 9 9 10 12 13 14 14 12 12
84 85 100 100 54 59 76 83 87 92 100 100 100 93 79 59 48 36 29 26 23 20 18 16 17 15 15 13 10 9 9 10 10 9 10 10 11 11 12 14 14 14 13
100 100 100 68 63 66 81 86 82 81 86 97 80 51 39 35 28 23 21 20 20 19 15 16 15 14 13 10 8 8 9 10 10 10 10 10 12 12 11 12 13 14 14
100 100 59 70 72 87 90 89 77 64 50 50 40 29 28 26 19 17 17 18 17 15 15 15 13 12 10 9 8 8 8 8 9 9 10 11 12 12 12 12 13 14 14
65 65 74 84 94 83 83 66 54 30 28 24 23 22 19 16 15 16 16 16 16 15 15 13 11 9 9 9 8 7 7 7 7 8 8 9 12 12 13 12 12 14 14
Wind_Speed
82 85 85 84 83 81 79 76 71 66 63 63 63 61 60 58 59 62 65 68 71 74 75 78 79 82 85 86 87 87 88 90 91 90 85 78 72 74 77 78 78 75 72
85 84 81 82 81 77 72 65 61 58 52 47 43 42 42 42 43 45 48 50 53 57 60 63 66 71 76 80 83 84 86 90 90 94 94 91 88 79 73 75 80 80 78
75 74 73 69 63 57 52 47 43 40 36 35 35 36 36 37 38 38 39 40 41 43 45 46 49 53 57 61 65 72 80 85 86 90 96 98 98 96 88 75 71 79 81
63 62 58 51 42 33 33 34 35 35 35 34 35 36 35 35 35 35 36 37 39 40 41 42 43 46 49 51 52 56 62 68 76 82 90 93 101 103 100 98 86 75 75
41 34 29 28 30 32 35 36 37 37 37 37 36 36 35 34 33 33 34 35 36 36 37 39 40 42 44 46 49 52 56 59 62 67 73 80 85 97 103 103 100 96 80
30 29 29 31 35 36 35 37 36 37 36 34 34 34 32 32 31 29 30 32 34 35 38 39 40 42 43 45 46 47 49 54 60 62 64 68 73 78 87 98 103 101 99
35 36 36 34 32 30 30 29 28 27 30 30 28 29 30 33 32 32 33 33 36 39 40 42 43 44 45 46 48 50 51 53 54 56 62 65 66 70 76 80 89 100 104
37 33 34 29 27 28 30 30 29 29 33 34 35 36 34 38 40 41 41 43 46 48 48 49 50 49 50 51 51 53 53 56 55 55 55 59 65 69 69 71 75 82 90
32 32 31 28 27 30 34 35 37 39 39 44 46 47 46 44 45 47 50 51 50 50 50 50 50 51 52 53 53 56 57 56 57 57 54 53 60 66 68 68 70 73 78
34 32 32 32 35 37 39 40 42 45 48 52 54 54 52 53 53 56 57 57 55 58 57 58 58 58 58 59 60 61 63 61 60 59 56 54 55 59 65 68 68 68 72
32 34 38 39 41 44 45 45 47 48 52 55 58 56 58 60 60 64 69 67 66 64 65 66 67 66 66 65 65 65 66 68 65 62 56 56 55 53 59 65 67 67 67
38 40 40 44 47 48 49 50 52 53 56 58 60 61 62 64 65 65 66 69 74 75 72 72 72 72 72 72 71 71 67 67 68 66 60 57 57 53 55 61 65 66 61
42 44 46 49 49 50 53 56 59 59 59 60 60 61 62 65 65 67 72 70 73 78 76 77 78 76 78 77 76 76 68 66 66 66 64 56 57 56 53 57 63 62 60
47 50 52 52 53 57 60 61 60 61 63 65 68 69 69 69 70 72 72 73 76 77 79 81 82 81 82 82 80 77 72 64 65 66 65 60 56 56 55 54 60 60 59
52 53 51 54 54 59 62 64 67 68 71 67 70 75 77 76 76 77 79 82 81 79 80 82 80 83 84 84 81 80 75 68 66 66 65 59 57 55 57 53 57 60 60
50 51 55 60 63 65 64 66 70 71 73 76 75 78 82 83 85 85 86 83 81 84 84 85 85 86 89 88 85 81 76 71 68 67 65 61 56 56 57 56 55 60 61
57 60 61 64 67 71 74 75 76 74 73 74 73 78 83 87 91 92 91 92 90 88 87 87 88 89 91 91 88 82 79 73 70 67 65 63 57 57 57 58 56 58 63
66 69 69 71 71 75 75 76 76 79 78 79 80 85 90 93 95 93 94 93 93 95 94 94 93 92 92 90 88 84 78 74 71 67 64 62 61 56 57 57 57 57 61
71 72 74 77 81 81 82 83 85 85 88 84 85 89 92 96 97 95 96 98 98 98 96 95 95 94 91 85 83 78 76 72 69 65 62 60 59 57 58 57 57 58 61
75 77 80 83 85 88 90 93 93 93 94 92 94 95 99 100 101 100 101 102 101 100 98 95 93 92 87 82 77 73 70 69 67 62 60 58 57 56 58 57 57 58 60
82 84 87 89 93 95 98 99 100 100 99 102 102 104 106 107 106 104 103 103 102 102 100 95 93 87 81 75 68 67 67 64 63 60 59 57 56 57 59 58 57 57 60
89 93 94 93 102 103 106 105 106 106 105 106 109 112 111 112 108 103 103 104 103 100 96 91 86 80 73 68 65 65 63 62 62 57 58 55 57 56 59 58 58 57 59
95 95 99 106 107 108 110 112 113 110 112 114 113 114 114 109 107 106 105 103 100 94 89 83 79 71 69 64 63 62 62 60 60 56 58 53 59 57 58 59 59 59 58
97 100 105 112 111 111 116 117 115 112 111 116 114 112 110 107 107 105 102 99 95 89 81 75 70 67 64 62 59 57 57 57 57 54 55 53 57 58 59 60 60 60 60
103 109 112 114 116 117 119 120 117 114 111 111 112 109 106 105 104 99 95 93 87 83 74 69 65 63 60 57 55 53 51 55 56 54 55 53 56 57 58 59 61 62 62
113 115 115 118 121 118 119 117 115 109 108 106 105 104 103 101 99 92 87 83 80 74 68 63 60 57 56 55 51 50 47 49 51 51 55 56 55 58 59 60 61 63 64
Wind_Direction
293 291 292 293 293 293 293 294 293 290 287 284 282 281 281 280 278 274 272 271 271 270 269 268 268 266 264 262 261 260 258 255 254 254 252 249 247 252 254 255 254 253 254
296 294 292 291 291 293 295 294 293 292 290 289 287 285 283 283 280 278 277 275 273 271 269 269 269 268 266 262 261 261 259 257 254 253 252 252 248 247 247 250 252 253 254
294 290 291 293 295 297 296 295 294 292 294 293 291 289 288 285 282 281 281 281 280 279 276 274 272 270 270 269 266 262 259 258 258 256 253 252 252 249 245 245 246 249 249
293 291 290 295 296 295 294 296 298 297 301 305 305 301 299 296 294 292 291 290 290 287 285 282 279 275 272 270 269 267 266 262 258 256 255 255 252 251 249 247 244 244 246
300 303 303 301 301 302 306 307 311 311 309 308 308 307 307 305 303 301 299 298 295 294 293 292 290 287 285 281 276 271 268 265 263 261 257 256 255 253 251 248 247 245 243
325 319 316 312 314 316 315 316 316 314 312 316 317 317 318 315 312 306 304 306 303 302 299 297 294 292 289 285 282 279 277 272 267 265 262 259 257 255 252 250 249 247 246
326 325 326 322 320 324 321 319 321 324 328 327 328 328 323 324 312 310 305 305 305 300 301 300 297 297 296 295 295 291 287 282 278 271 265 263 260 256 254 251 248 247 245
330 328 329 327 323 320 316 320 322 322 324 325 328 326 319 320 319 312 306 305 303 303 303 302 303 301 302 299 296 295 294 288 284 279 272 266 263 260 256 254 251 248 245
321 319 315 317 321 324 324 322 325 327 325 325 325 325 322 317 315 311 312 306 301 302 299 300 299 297 296 297 296 295 291 291 290 283 277 270 264 261 259 254 251 247 245
317 322 328 327 327 324 326 325 324 325 322 319 320 320 320 317 314 313 311 305 301 298 296 294 295 296 295 294 294 296 297 292 290 288 281 273 265 261 259 256 252 249 245
320 319 322 324 324 323 321 320 320 319 315 315 317 316 315 314 314 313 311 309 305 301 299 295 294 295 295 294 295 294 294 293 291 289 283 278 271 261 258 256 253 250 244
316 317 315 314 314 313 312 311 311 312 313 312 312 312 311 312 309 311 308 307 307 303 299 297 295 295 295 295 294 292 290 288 287 288 284 277 275 267 258 255 252 250 244
308 310 310 306 306 309 312 313 313 313 312 312 311 309 308 309 308 305 309 306 308 305 300 297 296 294 293 294 293 292 292 290 285 283 283 275 274 271 262 253 252 248 240
307 309 309 309 309 311 312 311 309 308 307 307 307 307 309 307 309 309 308 307 306 305 304 301 297 295 294 295 294 295 296 290 287 282 280 275 268 269 265 253 251 247 240
305 307 308 308 307 309 308 307 305 304 306 304 303 303 304 305 308 308 308 307 307 305 303 297 295 294 293 291 293 294 296 293 285 279 277 272 266 265 264 255 247 246 240
303 304 306 308 307 305 307 307 306 302 300 300 301 303 305 306 306 306 307 306 303 303 304 299 296 295 294 294 294 296 295 291 284 278 274 270 263 262 260 257 245 244 239
303 304 306 306 304 302 303 306 304 304 302 303 303 306 305 303 303 302 302 301 302 300 300 300 298 296 295 294 295 295 294 289 282 277 272 270 264 260 258 256 247 241 239
299 301 300 302 304 308 305 305 305 305 304 303 303 305 303 302 301 300 299 299 298 299 299 297 296 295 297 296 296 294 291 286 281 274 270 267 264 259 256 253 250 240 237
297 299 299 300 302 304 306 306 308 305 304 303 303 303 304 303 301 299 298 298 297 295 296 295 296 299 299 297 295 292 287 282 278 272 268 265 260 258 256 252 247 242 236
294 295 298 303 303 306 304 305 306 307 307 306 304 303 303 303 300 298 296 296 297 297 297 298 299 298 298 296 292 289 283 280 276 271 267 262 258 255 254 252 245 243 236
295 294 295 299 302 305 304 302 304 304 305 305 303 301 300 300 299 295 296 295 296 297 299 301 300 299 297 294 291 287 282 278 273 268 264 260 256 253 252 250 246 242 239
293 294 296 299 301 302 303 303 304 304 304 304 301 300 300 300 296 294 295 295 297 300 301 301 300 298 295 293 289 284 279 275 271 267 264 259 255 253 250 248 246 242 239
294 295 297 299 302 302 301 303 303 304 303 303 301 299 298 297 295 295 295 297 299 301 303 302 297 295 293 290 286 281 276 272 270 265 261 255 254 251 248 246 245 244 239
293 292 295 299 301 301 301 301 301 301 301 301 298 295 295 295 295 297 298 298 300 301 302 299 295 293 290 288 284 277 273 270 267 264 260 255 251 250 248 246 243 243 242
295 294 299 300 301 302 301 300 299 299 298 297 295 295 295 296 297 299 300 299 300 300 300 296 294 293 290 287 281 274 268 266 263 259 257 253 250 248 247 246 243 242 241
298 298 299 299 299 301 300 298 296 294 295 294 294 294 296 297 299 299 299 298 298 299 296 295 294 291 288 285 280 275 269 266 263 260 256 253 249 249 247 246 245 243 243